{"data":{"norad_id":57824,"epoch":"2026-09-20T13:24:42.517152Z","epoch_age_seconds":129539,"freshness":"FRESH","line1":"1 57824U 23138S   26263.55882543  .00000689  00000+0  34541-4 0  9995","line2":"2 57824  43.0012 213.4379 0001100 258.4931 101.5798 15.27588053168539","mean_motion":15.27588053,"eccentricity":0.00011,"inclination_deg":43.0012,"raan_deg":213.4379,"arg_perigee_deg":258.4931,"mean_anomaly_deg":101.5798,"bstar":3.4541e-5,"rev_number":16853,"period_min":94.266251766765,"perigee_km":482.27025474845,"apogee_km":483.77971038462,"semimajor_km":6861.1619825665,"source":"CELESTRAK","updated_at":"2026-09-21T09:00:33.709925Z"}}